Location: Muenchen
(48.1800°N, 11.5800°E)
Time: 09:38:23
(UTC+02:00)

Tiros 1 - Visible Passes

Search period start: 01 September 2014 00:00
Search period end: 11 September 2014 00:00
Orbit: 633 x 668 km, 48.4° (Epoch: 31 August)

Date Brightness Start Highest point End Pass type
(mag) Time Alt. Az. Time Alt. Az. Time Alt. Az.
01 Sep 7.1 21:41:50 10° W 21:46:38 89° S 21:49:13 27° E visible
01 Sep 8.5 23:24:13 10° W 23:26:56 34° W 23:26:56 34° W visible
02 Sep 7.2 20:26:46 10° WSW 20:31:32 70° SSE 20:36:16 10° E visible
02 Sep 7.1 22:09:03 10° W 22:13:51 87° N 22:14:59 53° E visible
02 Sep 9.4 23:51:25 10° W 23:52:42 18° W 23:52:42 18° W visible
03 Sep 7.2 20:53:53 10° W 20:58:41 89° S 21:03:00 13° E visible
03 Sep 7.1 22:36:15 10° W 22:40:43 76° WSW 22:40:43 76° WSW visible
04 Sep 7.1 21:21:05 10° W 21:25:54 86° N 21:28:43 25° E visible
04 Sep 8.3 23:03:27 10° W 23:06:26 36° W 23:06:26 36° W visible
05 Sep 7.1 21:48:18 10° W 21:53:06 84° SSW 21:54:26 48° ESE visible
05 Sep 9.4 23:30:44 10° W 23:32:09 18° W 23:32:09 18° W visible
06 Sep 7.2 20:33:08 10° W 20:37:57 86° N 20:42:27 12° E visible
06 Sep 7.2 22:15:30 10° W 22:20:10 62° SSW 22:20:10 62° SSW visible
07 Sep 7.1 21:00:20 10° W 21:05:09 85° S 21:08:11 22° ESE visible
07 Sep 8.4 22:42:46 10° W 22:45:54 32° WSW 22:45:54 32° WSW visible
08 Sep 7.3 21:27:32 10° W 21:32:16 63° SSW 21:33:57 38° SE visible
08 Sep 9.5 23:10:21 10° W 23:11:40 16° WSW 23:11:40 16° WSW visible
09 Sep 7.2 20:12:22 10° W 20:17:12 86° S 20:21:58 10° ESE visible
09 Sep 7.8 21:54:47 10° W 21:59:15 40° SSW 21:59:45 39° SSW visible
10 Sep 7.4 20:39:34 10° W 20:44:19 65° SSW 20:47:52 17° ESE visible
10 Sep 8.9 22:22:21 10° W 22:25:35 22° SW 22:25:35 22° SW visible
